Notices

What's New in latest Release from April 7th, 2021:

- Updated Glossary, including Speed of Maximum Gust, and Total Hourly Precipitation

- Updated national and regional climate services offices contacts and prices information

- Addition of station inventory lists for 1981-2010, 1971-2000, and 1961-1990 Normals.

If you haven't already, please take our survey and provide feedback about our website: https://eccc.sondage-survey.ca/f/LanguageSelection.aspx?s=442ca660-fcf1-47c0-95a9-59707d6fd709

Hourly Data Report for August 22, 2015

IQALUIT CLIMATE
NUNAVUT

63°44'50.000" N
68°32'40.000" W
33.50 m
2402592
71321
XFB

Download Data

Hourly Data (August 2015)
Hourly Data Report for August 22, 2015
TIME
LST
Temp Definition
°C
Dew Point Definition
°C
Rel Hum Definition
%
Precip. Amount Definition
mm

Wind Dir Definition
10's deg

Wind Spd Definition
km/h
Visibility Definition
km
Stn Press Definition
kPa
Hmdx Definition


Wind Chill Definition


Weather Definition


00:00 3.5 0.4 80 0.0 20 6   101.21     LegendNANA
01:00 5.0 -0.6 67 0.0 16 15   101.18     LegendNANA
02:00 2.4 0.0 85 0.0 15 10   101.19     LegendNANA
03:00 2.1 -0.2 85 0.0 16 10   101.16     LegendNANA
04:00 1.7 -0.2 88 0.0 15 9   101.13     LegendNANA
05:00 2.4 -0.4 82 0.0 18 9   101.10     LegendNANA
06:00 2.0 -0.1 86 0.0 16 10   101.07     LegendNANA
07:00 2.2 -0.2 84 0.0 17 9   101.04     LegendNANA
08:00 2.0 0.5 89 0.0 14 9   101.08     LegendNANA
09:00 1.9 0.3 89 0.0 14 11   101.09     LegendNANA
10:00 2.9 0.4 84 0.0 15 10   101.07     LegendNANA
11:00 4.2 0.5 77 0.0 14 9   101.03     LegendNANA
12:00 3.3 0.7 83 0.2 16 25   101.07     LegendNANA
13:00 4.8 2.8 87 1.0 12 34   101.13     LegendNANA
14:00 5.6 3.6 87 1.0 12 37   101.12     LegendNANA
15:00 5.0 3.1 87 0.5 13 35   101.16     LegendNANA
16:00 5.1 2.9 86 1.3 13 30   101.19     LegendNANA
17:00 5.2 3.3 87 0.8 13 26   101.19     LegendNANA
18:00 5.4 3.4 87 1.1 13 24   101.18     LegendNANA
19:00 2.5 1.2 91 0.2 19 10   101.18     LegendNANA
20:00 2.2 0.9 91 0.0 17 9   101.18     LegendNANA
21:00 2.0 1.0 93 0.0 16 10   101.18     LegendNANA
22:00 1.7 0.8 94 0.0 13 8   101.18     LegendNANA
23:00 1.6 0.8 94 0.0 14 9   101.21     LegendNANA

Notes on Data Quality.

Legend

  • E = Estimated
  • M = Missing
  • NA = Not Available*
  • [empty] = Indicates an unobserved value
Date modified: